Chetek Municipal Southworth A, WI

8:19 PM CDT on August 20, 2017 (GMT -0500)
Chetek Municipal Southworth A

Weather History for KY23 - December, 2013

Change the Weather History Date:

Friday, December 27, 2013

  Actual Average (KRPD) Record (KRPD)
Temperature  
Mean Temperature 18 °F -  
Max Temperature 36 °F 21 °F 42 °F (2008)
Min Temperature 0 °F 6 °F -16 °F (1996)
Degree Days  
Heating Degree Days 47    
Moisture  
Dew Point 18 °F    
Average Humidity 86    
Maximum Humidity 98    
Minimum Humidity 70    
Precipitation  
Precipitation 0.00 in - - ()
Sea Level Pressure  
Sea Level Pressure 30.00 in    
Wind  
Wind Speed 2 mph (South)    
Max Wind Speed 10 mph    
Max Gust Speed -    
Visibility 8 miles    
Events Fog    
Averages and records for this station are not official NWS values.
T = Trace of Precipitation, MM = Missing Value Source: NWS Daily Summary

Daily Weather History Graph

Daily Weather History Graph

Search for Another Location

Airport or City:

Trip Planner

Search our weather history database for the weather conditions in past years. The results will help you decide how hot, cold, wet, or windy it might be!

Date:

Astronomy

Dec. 27, 2013 Rise Set
Actual Time 7:45 AM CST 4:30 PM CST
Civil Twilight 7:11 AM CST 5:04 PM CST
Nautical Twilight 6:33 AM CST 5:41 PM CST
Astronomical Twilight 5:57 AM CST 6:17 PM CST
Moon 2:07 AM CST (12/27) 12:49 PM CST (12/27)
Length of Visible Light 9h 53m
Length of Day
8h 45m
Waning Crescent, 28% of the Moon is Illuminated
Dec 27
Waning Crescent
Jan 1
New
Jan 7
First Quarter
Jan 15
Full
Jan 23
Last Quarter

Hourly Weather History & Observations

Time (CST) Temp. Windchill Dew Point Humidity Pressure Visibility Wind Dir Wind Speed Gust Speed Precip Events Conditions
12:15 AM 3.6 °F - 0.1 °F 86% 30.15 in 7.0 mi Calm Calm - N/A   Mostly Cloudy
12:35 AM 5.4 °F - 2.3 °F 87% 30.15 in 10.0 mi Calm Calm - N/A   Overcast
12:50 AM 4.3 °F - 0.9 °F 86% 30.15 in 10.0 mi Calm Calm - N/A   Overcast
1:15 AM 3.2 °F - -0.0 °F 86% 30.15 in 10.0 mi Calm Calm - N/A   Scattered Clouds
1:35 AM 3.2 °F - -0.0 °F 86% 30.15 in 10.0 mi Calm Calm - N/A   Clear
1:55 AM 2.7 °F - -0.6 °F 86% 30.15 in 10.0 mi Calm Calm - N/A   Scattered Clouds
2:15 AM 3.2 °F - -0.2 °F 86% 30.14 in 10.0 mi Calm Calm - N/A   Scattered Clouds
2:35 AM 0.5 °F - -3.1 °F 85% 30.14 in 10.0 mi Calm Calm - N/A   Clear
2:50 AM 0.5 °F - -2.9 °F 85% 30.14 in 10.0 mi Calm Calm - N/A   Clear
3:15 AM 1.4 °F - -2.2 °F 85% 30.14 in 7.0 mi Calm Calm - N/A   Clear
3:35 AM 2.1 °F -5.4 °F -1.3 °F 86% 30.14 in 7.0 mi East 3.5 mph - N/A   Scattered Clouds
3:55 AM 2.7 °F - -0.9 °F 85% 30.13 in 10.0 mi Calm Calm - N/A   Scattered Clouds
4:15 AM 2.5 °F -5.0 °F -0.8 °F 86% 30.13 in 10.0 mi East 3.5 mph - N/A   Mostly Cloudy
4:35 AM 4.1 °F - 0.9 °F 86% 30.13 in 10.0 mi Calm Calm - N/A   Overcast
4:50 AM 5.4 °F - 2.5 °F 88% 30.13 in 7.0 mi Calm Calm - N/A   Overcast
5:15 AM 7.7 °F 1.0 °F 5.0 °F 89% 30.12 in 0.8 mi East 3.5 mph - N/A   Overcast
5:35 AM 8.4 °F - 5.7 °F 89% 30.13 in 0.8 mi Calm Calm - N/A   Overcast
5:55 AM 8.6 °F - 5.9 °F 89% 30.11 in 3.0 mi Calm Calm - N/A   Overcast
6:10 AM - - - N/A% 30.11 in 2.5 mi Calm Calm - N/A   Overcast
6:35 AM - - - N/A% 30.12 in 4.0 mi Calm Calm - N/A   Haze
6:55 AM - - - N/A% 30.12 in 5.0 mi Calm Calm - N/A   Haze
7:15 AM - - - N/A% 30.10 in 5.0 mi East 3.5 mph - N/A   Haze
7:35 AM - - - N/A% 30.10 in 5.0 mi East 3.5 mph - N/A   Haze
7:55 AM - - - N/A% 30.09 in 4.0 mi East 3.5 mph - N/A   Haze
8:15 AM - - - N/A% 30.09 in 3.0 mi East 3.5 mph - N/A   Overcast
8:35 AM - - - N/A% 30.08 in 3.0 mi East 3.5 mph - N/A   Overcast
8:55 AM - - - N/A% 30.08 in 3.0 mi ESE 3.5 mph - N/A   Overcast
9:15 AM - - - N/A% 30.07 in 4.0 mi ESE 3.5 mph - N/A   Haze
9:35 AM - - - N/A% 30.07 in 4.0 mi East 3.5 mph - N/A   Haze
9:55 AM - - - N/A% 30.05 in 4.0 mi East 4.6 mph - N/A   Haze
10:15 AM - - - N/A% 30.04 in 4.0 mi ESE 5.8 mph - N/A   Haze
10:35 AM - - - N/A% 30.03 in 4.0 mi ESE 5.8 mph - N/A   Haze
10:55 AM - - - N/A% 30.01 in 4.0 mi SE 5.8 mph - N/A   Haze
11:15 AM - - - N/A% 29.98 in 4.0 mi SE 9.2 mph - N/A   Haze
11:35 AM - - - N/A% 29.96 in 5.0 mi SE 10.4 mph - N/A   Haze
11:55 AM 25.5 °F 15.5 °F 24.6 °F 96% 29.94 in 5.0 mi ESE 10.4 mph - N/A   Mostly Cloudy
12:15 PM 27.1 °F 18.9 °F 26.6 °F 98% 29.92 in 7.0 mi SE 8.1 mph - N/A   Overcast
12:35 PM 28.8 °F 20.9 °F 28.2 °F 98% 29.90 in 10.0 mi SSE 8.1 mph - N/A   Overcast
12:55 PM 29.7 °F 20.7 °F 28.2 °F 94% 29.89 in 10.0 mi South 10.4 mph - N/A   Overcast
1:15 PM 31.5 °F 22.9 °F 25.7 °F 79% 29.88 in 10.0 mi SSE 10.4 mph - N/A   Mostly Cloudy
1:35 PM 32.0 °F 24.2 °F 25.7 °F 78% 29.86 in 10.0 mi South 9.2 mph - N/A   Scattered Clouds
1:55 PM 32.2 °F 25.0 °F 25.7 °F 77% 29.86 in 10.0 mi South 8.1 mph - N/A   Clear
2:15 PM 32.7 °F 27.3 °F 26.1 °F 76% 29.86 in 10.0 mi South 5.8 mph - N/A   Clear
2:35 PM 33.1 °F 26.1 °F 26.2 °F 76% 29.85 in 10.0 mi South 8.1 mph - N/A   Clear
2:55 PM 33.8 °F 29.6 °F 26.4 °F 74% 29.85 in 10.0 mi SSW 4.6 mph - N/A   Clear
3:15 PM 35.1 °F 29.3 °F 27.1 °F 73% 29.85 in 10.0 mi SSW 6.9 mph - N/A   Clear
3:35 PM 36.5 °F 31.8 °F 27.5 °F 70% 29.85 in 10.0 mi SW 5.8 mph - N/A   Clear
3:55 PM 36.0 °F 30.3 °F 27.9 °F 72% 29.86 in 10.0 mi SW 6.9 mph - N/A   Clear
4:15 PM 35.2 °F 29.5 °F 27.7 °F 74% 29.86 in 10.0 mi SW 6.9 mph - N/A   Clear
4:35 PM 34.0 °F 31.0 °F 27.7 °F 78% 29.87 in 10.0 mi WSW 3.5 mph - N/A   Clear
4:55 PM 32.9 °F 29.8 °F 27.5 °F 81% 29.87 in 10.0 mi SW 3.5 mph - N/A   Clear
5:15 PM 32.4 °F 27.9 °F 27.1 °F 81% 29.88 in 10.0 mi SW 4.6 mph - N/A   Clear
5:35 PM 32.0 °F 28.7 °F 26.8 °F 81% 29.88 in 10.0 mi SW 3.5 mph - N/A   Clear
5:55 PM 31.1 °F - 26.4 °F 83% 29.88 in 10.0 mi Calm Calm - N/A   Clear
6:15 PM 30.0 °F - 25.7 °F 84% 29.88 in 10.0 mi Calm Calm - N/A   Clear
6:35 PM 30.6 °F 27.1 °F 26.1 °F 83% 29.89 in 10.0 mi SW 3.5 mph - N/A   Clear
6:55 PM 28.8 °F - 25.2 °F 86% 29.90 in 10.0 mi Calm Calm - N/A   Clear
7:15 PM 27.3 °F 23.4 °F 25.2 °F 92% 29.90 in 10.0 mi West 3.5 mph - N/A   Clear
7:35 PM 31.6 °F 28.3 °F 28.0 °F 87% 29.91 in 10.0 mi WSW 3.5 mph - N/A   Clear
7:55 PM 31.6 °F 28.3 °F 28.2 °F 87% 29.92 in 10.0 mi West 3.5 mph - N/A   Clear
8:15 PM 32.0 °F 26.4 °F 28.4 °F 87% 29.93 in 10.0 mi West 5.8 mph - N/A   Clear
8:35 PM 30.0 °F 26.5 °F 27.1 °F 89% 29.93 in 10.0 mi West 3.5 mph - N/A   Clear
8:55 PM 30.4 °F - 27.9 °F 90% 29.94 in 10.0 mi Calm Calm - N/A   Clear
9:15 PM 30.9 °F 27.5 °F 28.2 °F 90% 29.95 in 10.0 mi West 3.5 mph - N/A   Clear
9:35 PM 32.0 °F 27.5 °F 29.1 °F 89% 29.95 in 10.0 mi WSW 4.6 mph - N/A   Clear
9:55 PM 32.0 °F 28.7 °F 29.3 °F 90% 29.95 in 10.0 mi WSW 3.5 mph - N/A   Clear
10:15 PM 31.6 °F 27.0 °F 29.1 °F 90% 29.95 in 10.0 mi West 4.6 mph - N/A   Clear
10:35 PM 28.9 °F - 27.3 °F 94% 29.95 in 10.0 mi Calm Calm - N/A   Clear
10:55 PM 28.4 °F - 27.1 °F 95% 29.94 in 10.0 mi Calm Calm - N/A   Clear
11:15 PM 25.0 °F - 24.1 °F 96% 29.95 in 2.5 mi Calm Calm - N/A   Clear
11:35 PM 25.3 °F - 24.8 °F 98% 29.95 in 1.5 mi Calm Calm - N/A   Mist
11:55 PM 22.1 °F - 21.2 °F 96% 29.94 in 0.5 mi Calm Calm - N/A Fog Light Freezing Fog